Location: Mount Cross
(36.6390°N, 79.4878°W)
Time: 16:37:08
(UTC+00:00)

Altair - All Passes

Search period start: 31 March 2023 00:00
Search period end: 10 April 2023 00:00
Orbit: 1501 x 1682 km, 47.2° (Epoch: 30 March)

Date Brightness Start Highest point End Pass type
(mag) Time Alt. Az. Time Alt. Az. Time Alt. Az.
31 Mar - 07:23:34 10° SSW 07:32:05 36° SE 07:40:20 10° ENE visible
31 Mar - 09:26:39 10° WSW 09:36:17 80° NNW 09:45:36 10° ENE visible
31 Mar - 11:33:06 10° W 11:42:01 45° N 11:50:44 10° ENE daylight
31 Mar - 13:39:21 10° WNW 13:48:19 52° NNE 13:57:13 10° E daylight
31 Mar - 15:44:18 10° WNW 15:53:26 74° SW 16:02:39 10° SE daylight
31 Mar - 17:50:51 10° W 17:57:00 20° SW 18:03:13 10° S daylight
01 Apr - 06:58:41 10° S 07:06:59 33° SE 07:15:00 10° ENE visible
01 Apr - 09:01:23 10° WSW 09:11:04 84° NNW 09:20:25 10° ENE visible
01 Apr - 11:07:44 10° W 11:16:42 46° N 11:25:29 10° ENE daylight
01 Apr - 13:14:05 10° WNW 13:23:03 50° NNE 13:31:53 10° E daylight
01 Apr - 15:19:05 10° WNW 15:28:17 80° SW 15:37:30 10° SE daylight
01 Apr - 17:25:18 10° W 17:31:56 23° SW 17:38:38 10° S daylight
02 Apr - 06:33:52 10° S 06:41:53 30° SE 06:49:38 10° ENE visible
02 Apr - 08:36:10 10° SW 08:45:52 89° NNW 08:55:14 10° ENE visible
02 Apr - 10:42:21 10° W 10:51:24 47° NNW 11:00:14 10° ENE daylight
02 Apr - 12:48:49 10° WNW 12:57:46 48° NNE 13:06:33 10° E daylight
02 Apr - 14:53:54 10° WNW 15:03:07 85° SW 15:12:21 10° SE daylight
02 Apr - 16:59:49 10° WNW 17:06:52 25° SW 17:13:58 10° S daylight
03 Apr - 06:09:05 10° S 06:16:47 27° SE 06:24:15 10° ENE visible
03 Apr - 08:10:56 10° SW 08:20:40 86° SE 08:30:04 10° ENE visible
03 Apr - 10:16:58 10° W 10:26:06 49° NNW 10:34:59 10° ENE visible
03 Apr - 12:23:34 10° WNW 12:32:28 47° NNE 12:41:14 10° E daylight
03 Apr - 14:28:42 10° WNW 14:37:57 90° NNE 14:47:11 10° SE daylight
03 Apr - 16:34:24 10° WNW 16:41:47 28° SW 16:49:14 10° S daylight
04 Apr - 05:44:22 10° S 05:51:41 24° SE 05:58:48 10° ENE visible
04 Apr - 07:45:44 10° SW 07:55:29 81° SE 08:04:52 10° ENE visible
04 Apr - 09:51:36 10° W 10:00:49 50° NNW 10:09:46 10° ENE visible
04 Apr - 11:58:16 10° WNW 12:07:10 46° N 12:15:54 10° E daylight
04 Apr - 14:03:29 10° WNW 14:12:46 85° NNE 14:21:59 10° ESE daylight
04 Apr - 16:09:01 10° WNW 16:16:42 31° SW 16:24:27 10° S daylight
05 Apr - 05:19:42 10° S 05:26:35 22° SE 05:33:17 10° E visible
05 Apr - 07:20:33 10° SW 07:30:17 75° SE 07:39:41 10° ENE visible
05 Apr - 09:26:14 10° W 09:35:31 52° NNW 09:44:32 10° ENE visible
05 Apr - 11:32:57 10° WNW 11:41:52 45° N 11:50:35 10° E daylight
05 Apr - 13:38:17 10° WNW 13:47:35 80° NNE 13:56:46 10° ESE daylight
05 Apr - 15:43:40 10° WNW 15:51:38 35° SW 15:59:38 10° SSE daylight
06 Apr - 04:55:09 10° SSE 05:01:30 19° SE 05:07:42 10° E visible
06 Apr - 06:55:23 10° SW 07:05:07 70° SE 07:14:29 10° ENE visible
06 Apr - 09:00:51 10° W 09:10:14 54° NNW 09:19:19 10° ENE visible
06 Apr - 11:07:38 10° WNW 11:16:34 44° N 11:25:16 10° ENE daylight
06 Apr - 13:13:04 10° WNW 13:22:23 75° NNE 13:31:33 10° ESE daylight
06 Apr - 15:18:20 10° WNW 15:26:32 38° SW 15:34:46 10° SSE daylight
07 Apr - 04:30:42 10° SSE 04:36:25 17° SE 04:42:01 10° E visible
07 Apr - 06:30:15 10° SW 06:39:57 65° SE 06:49:16 10° ENE visible
07 Apr - 08:35:29 10° W 08:44:57 56° NNW 08:54:07 10° ENE visible
07 Apr - 10:42:18 10° WNW 10:51:15 44° N 10:59:57 10° ENE daylight
07 Apr - 12:47:52 10° NW 12:57:10 71° NNE 13:06:18 10° ESE daylight
07 Apr - 14:53:02 10° WNW 15:01:27 42° SW 15:09:52 10° SSE daylight
08 Apr - 04:06:24 10° SSE 04:11:20 15° ESE 04:16:11 10° E visible
08 Apr - 06:05:08 10° SW 06:14:47 60° SE 06:24:04 10° ENE visible
08 Apr - 08:10:07 10° W 08:19:41 59° NNW 08:28:55 10° ENE visible
08 Apr - 10:16:58 10° WNW 10:25:56 44° N 10:34:38 10° ENE visible
08 Apr - 12:22:38 10° NW 12:31:56 68° NNE 12:41:04 10° ESE daylight
08 Apr - 14:27:45 10° WNW 14:36:21 46° SW 14:44:55 10° SSE daylight
09 Apr - 03:42:22 10° SE 03:46:15 13° ESE 03:50:05 10° E night (unlit)
09 Apr - 05:40:03 10° SSW 05:49:37 56° SE 05:58:50 10° ENE visible
09 Apr - 07:44:46 10° WSW 07:54:25 62° NNW 08:03:43 10° ENE visible
09 Apr - 09:51:37 10° WNW 10:00:36 44° N 10:09:20 10° ENE visible
09 Apr - 11:57:25 10° WNW 12:06:42 64° NNE 12:15:48 10° ESE daylight
09 Apr - 14:02:29 10° WNW 14:11:15 50° SW 14:19:58 10° SSE daylight
